Voltar ao catálogo

COSMOS 2251 DEB

AtivoLEO
NORAD 34459·DEBRIS·🇷🇺 Russia

Lançado Jun 16, 1993 de Plesetsk Cosmodrome

Loading…

Próximas Passagens (próximas 24 horas)

TLE

AtualizadoSource: Space-Track

Época: Sep 14, 2026, 02:34 UTC

1 34459U 93036TC  26257.10759799  .00000359  00000-0  21792-3 0  9996
2 34459  74.0786 137.9491 0190828 142.0661 219.4097 14.00834882895676

Acompanhe COSMOS 2251 DEB em tempo real com AllMySat

Download on the App Store